Hourly Weather Luh

Today, 10 May, Monday

Time Temperature Precipitation Wind Pressure Humidity
00:00 +7°C° 0 mm 2 mps 741 mmHg 84%
01:00 +7°C° 0 mm 2 mps 741 mmHg 84%
02:00 +6°C° 0 mm 2 mps 741 mmHg 85%
03:00 +6°C° 0 mm 2 mps 741 mmHg 84%
04:00 +6°C° 0 mm 2 mps 741 mmHg 84%
05:00 +6°C° 0 mm 2 mps 741 mmHg 83%
06:00 +8°C° 0 mm 3 mps 741 mmHg 77%
07:00 +10°C° 0 mm 3 mps 741 mmHg 71%
08:00 +12°C° 0 mm 3 mps 741 mmHg 65%
09:00 +14°C° 0 mm 4 mps 741 mmHg 61%
10:00 +17°C° 0 mm 4 mps 740 mmHg 58%
11:00 +19°C° 0 mm 4 mps 740 mmHg 54%
12:00 +20°C° 0 mm 5 mps 740 mmHg 53%
13:00 +20°C° 0 mm 5 mps 740 mmHg 53%
14:00 +21°C° 0 mm 5 mps 740 mmHg 53%
15:00 +21°C° 0 mm 5 mps 739 mmHg 56%
16:00 +20°C° 0 mm 5 mps 739 mmHg 60%
17:00 +20°C° 0 mm 5 mps 739 mmHg 64%
18:00 +17°C° 0 mm 5 mps 739 mmHg 70%
19:00 +15°C° 0 mm 4 mps 739 mmHg 75%
20:00 +13°C° 0 mm 4 mps 739 mmHg 81%
21:00 +12°C° 0 mm 3 mps 739 mmHg 83%
22:00 +11°C° 0 mm 3 mps 739 mmHg 85%
23:00 +10°C° 0 mm 3 mps 739 mmHg 87%

Tomorrow, 11 May, Tuesday

Time Temperature Precipitation Wind Pressure Humidity
00:00 +10°C° 0 mm 3 mps 739 mmHg 87%
01:00 +10°C° 0 mm 3 mps 739 mmHg 87%
02:00 +9°C° 0 mm 3 mps 739 mmHg 87%
03:00 +9°C° 0 mm 3 mps 739 mmHg 87%
04:00 +7°C° 0 mm 4 mps 739 mmHg 88%
05:00 +7°C° 0 mm 4 mps 739 mmHg 88%
06:00 +10°C° 0 mm 4 mps 739 mmHg 83%
07:00 +10°C° 0 mm 5 mps 739 mmHg 77%
08:00 +13°C° 0 mm 6 mps 739 mmHg 72%
09:00 +15°C° 0 mm 6 mps 739 mmHg 68%
10:00 +16°C° 0 mm 6 mps 738 mmHg 63%
11:00 +17°C° 0 mm 7 mps 738 mmHg 59%
12:00 +18°C° 0 mm 7 mps 738 mmHg 58%
13:00 +20°C° 0 mm 7 mps 738 mmHg 56%
14:00 +21°C° 0 mm 7 mps 737 mmHg 55%
15:00 +20°C° 0 mm 6 mps 737 mmHg 58%
16:00 +20°C° 0 mm 6 mps 737 mmHg 61%
17:00 +19°C° 0 mm 6 mps 736 mmHg 64%
18:00 +17°C° 0 mm 6 mps 736 mmHg 66%
19:00 +15°C° 0 mm 5 mps 736 mmHg 68%
20:00 +13°C° 0 mm 5 mps 736 mmHg 71%
21:00 +13°C° 0 mm 5 mps 736 mmHg 70%
22:00 +12°C° 0 mm 5 mps 736 mmHg 69%
23:00 +11°C° 0 mm 4 mps 736 mmHg 68%

Day after tomorrow, 12 May, Wednesday

Time Temperature Precipitation Wind Pressure Humidity
00:00 +11°C° 0 mm 4 mps 735 mmHg 71%
01:00 +10°C° 0 mm 4 mps 735 mmHg 74%
02:00 +10°C° 0 mm 4 mps 735 mmHg 78%
03:00 +9°C° 0 mm 3 mps 734 mmHg 82%
04:00 +9°C° 0 mm 3 mps 734 mmHg 86%
05:00 +8°C° 0 mm 3 mps 734 mmHg 90%
06:00 +10°C° 0 mm 4 mps 734 mmHg 85%
07:00 +12°C° 0 mm 5 mps 734 mmHg 80%
08:00 +14°C° 0 mm 6 mps 734 mmHg 75%
09:00 +14°C° 0 mm 6 mps 733 mmHg 76%
10:00 +15°C° 0 mm 7 mps 733 mmHg 77%
11:00 +15°C° 0 mm 8 mps 733 mmHg 78%
12:00 +15°C° 0 mm 8 mps 733 mmHg 78%
13:00 +13°C° 0 mm 8 mps 733 mmHg 78%
14:00 +12°C° 0 mm 8 mps 733 mmHg 79%
15:00 +11°C° 0 mm 7 mps 733 mmHg 78%
16:00 +11°C° 0 mm 7 mps 732 mmHg 77%
17:00 +11°C° 0 mm 7 mps 732 mmHg 77%
18:00 +10°C° 0 mm 6 mps 732 mmHg 78%
19:00 +9°C° 0 mm 6 mps 732 mmHg 79%
20:00 +9°C° 0 mm 6 mps 732 mmHg 80%
21:00 +8°C° 0 mm 6 mps 731 mmHg 82%
22:00 +8°C° 0 mm 5 mps 731 mmHg 83%
23:00 +7°C° 0 mm 5 mps 730 mmHg 85%

13 May, Thursday

Time Temperature Precipitation Wind Pressure Humidity
00:00 +7°C° 0 mm 5 mps 730 mmHg 85%
01:00 +7°C° 0 mm 5 mps 730 mmHg 85%
02:00 +7°C° 0 mm 5 mps 729 mmHg 85%
03:00 +7°C° 0 mm 5 mps 729 mmHg 87%
04:00 +7°C° 0 mm 4 mps 728 mmHg 89%
05:00 +7°C° 0 mm 4 mps 728 mmHg 92%
06:00 +8°C° 0 mm 4 mps 728 mmHg 89%
07:00 +10°C° 0 mm 4 mps 728 mmHg 86%
08:00 +11°C° 0 mm 4 mps 728 mmHg 83%
09:00 +13°C° 0.1 mm 4 mps 728 mmHg 80%
10:00 +14°C° 0.1 mm 4 mps 727 mmHg 77%
11:00 +17°C° 0.1 mm 3 mps 727 mmHg 73%
12:00 +16°C° 0.5 mm 3 mps 727 mmHg 79%
13:00 +15°C° 0.5 mm 2 mps 728 mmHg 84%
14:00 +14°C° 0.5 mm 2 mps 728 mmHg 90%
15:00 +15°C° 0.1 mm 2 mps 728 mmHg 88%
16:00 +15°C° 0.1 mm 2 mps 728 mmHg 86%
17:00 +15°C° 0.1 mm 2 mps 728 mmHg 84%
18:00 +13°C° 0.1 mm 3 mps 728 mmHg 87%
19:00 +12°C° 0.1 mm 3 mps 728 mmHg 91%
20:00 +12°C° 0.1 mm 3 mps 728 mmHg 95%
21:00 +12°C° 0 mm 2 mps 728 mmHg 94%
22:00 +12°C° 0 mm 2 mps 728 mmHg 94%
23:00 +10°C° 0 mm 2 mps 728 mmHg 94%

14 May, Friday

Time Temperature Precipitation Wind Pressure Humidity
00:00 +10°C° 0 mm 2 mps 728 mmHg 93%
01:00 +11°C° 0 mm 1 mps 729 mmHg 92%
02:00 +11°C° 0 mm 1 mps 729 mmHg 91%
03:00 +11°C° 0 mm 1 mps 729 mmHg 91%
04:00 +11°C° 0 mm 1 mps 729 mmHg 91%
05:00 +11°C° 0 mm 1 mps 729 mmHg 91%
06:00 +12°C° 0 mm 1 mps 729 mmHg 89%
07:00 +13°C° 0 mm 2 mps 729 mmHg 87%
08:00 +14°C° 0 mm 2 mps 730 mmHg 85%
09:00 +15°C° 0.3 mm 2 mps 730 mmHg 81%
10:00 +14°C° 0.3 mm 3 mps 730 mmHg 77%
11:00 +15°C° 0.3 mm 4 mps 730 mmHg 73%
12:00 +17°C° 0.1 mm 4 mps 730 mmHg 67%
13:00 +18°C° 0.1 mm 4 mps 731 mmHg 61%
14:00 +19°C° 0.1 mm 4 mps 731 mmHg 55%
15:00 +19°C° 0.1 mm 4 mps 731 mmHg 59%
16:00 +19°C° 0.1 mm 4 mps 731 mmHg 62%
17:00 +18°C° 0.1 mm 4 mps 731 mmHg 65%
18:00 +16°C° 0.1 mm 3 mps 731 mmHg 70%
19:00 +14°C° 0.1 mm 3 mps 732 mmHg 76%
20:00 +12°C° 0.1 mm 3 mps 732 mmHg 81%
21:00 +11°C° 0 mm 3 mps 732 mmHg 83%
22:00 +10°C° 0 mm 3 mps 733 mmHg 85%
23:00 +9°C° 0 mm 2 mps 733 mmHg 87%

15 May, Saturday

Time Temperature Precipitation Wind Pressure Humidity
00:00 +9°C° 0 mm 2 mps 734 mmHg 88%
01:00 +9°C° 0 mm 2 mps 734 mmHg 89%
02:00 +8°C° 0 mm 2 mps 734 mmHg 90%
03:00 +8°C° 0 mm 2 mps 734 mmHg 90%
04:00 +8°C° 0 mm 2 mps 734 mmHg 89%
05:00 +7°C° 0 mm 2 mps 735 mmHg 89%
06:00 +9°C° 0 mm 2 mps 735 mmHg 83%
07:00 +12°C° 0 mm 2 mps 735 mmHg 76%
08:00 +13°C° 0 mm 3 mps 735 mmHg 69%
09:00 +14°C° 0.1 mm 3 mps 735 mmHg 68%
10:00 +16°C° 0.1 mm 3 mps 736 mmHg 66%
11:00 +15°C° 0.1 mm 4 mps 736 mmHg 65%
12:00 +17°C° 0.1 mm 4 mps 736 mmHg 63%
13:00 +17°C° 0.1 mm 4 mps 736 mmHg 62%
14:00 +18°C° 0.1 mm 4 mps 736 mmHg 61%
15:00 +18°C° 0.1 mm 3 mps 736 mmHg 62%
16:00 +18°C° 0.1 mm 2 mps 735 mmHg 63%
17:00 +18°C° 0.1 mm 2 mps 735 mmHg 64%
18:00 +16°C° 0 mm 1 mps 735 mmHg 71%
19:00 +15°C° 0 mm 1 mps 735 mmHg 77%
20:00 +13°C° 0 mm 1 mps 735 mmHg 83%
21:00 +12°C° 0 mm 1 mps 735 mmHg 85%
22:00 +12°C° 0 mm 1 mps 735 mmHg 87%
23:00 +11°C° 0 mm 1 mps 735 mmHg 89%
Show more

We Need Your Consent

Meteoprog and our Service Providers may store and access personal data such as cookies, device identifiers or other similar technologies on your device and process such data to personalise content and ads, as well as provide social media features and to analyse the traffic.

  • Store and/or access information on your device

    Cookies, device identifiers or other information can be stored or accessed on your device for the purposes indicated above.

  • Personalised ads and content, ad and content measurement, audience insights, and products development

    Ads and content can be personalised based on a profile. More data can be added to better personalise ads and content. Ad and content performance can be measured. Insights about the audience who saw the ads and content can be derived. Such data can be used to develop or improve user’s experience, systems and software.

By clicking ‘I Agree’ you will allow the use of indicated cookies, device identifiers, web beacons or other similar technologies. Your settings can be changed in the browser on your device.

For certain purposes, legitimate interests may be relied on, rather than consent. You can read more about this in our Privacy and Cookie Policy.